Year,Month,Day,Hour,Minute,Value (Times are PST for temperature in C)
2010,07,18,00,00,15.40
2010,07,18,00,01,15.40
2010,07,18,00,02,15.40
2010,07,18,00,03,15.30
2010,07,18,00,04,15.30
2010,07,18,00,05,15.30
2010,07,18,00,06,15.30
2010,07,18,00,07,15.30
2010,07,18,00,08,15.20
2010,07,18,00,09,15.20
2010,07,18,00,10,15.20
2010,07,18,00,11,15.20
2010,07,18,00,12,15.10
2010,07,18,00,13,15.10
2010,07,18,00,14,15.10
2010,07,18,00,15,15.00
2010,07,18,00,16,15.00
2010,07,18,00,17,15.00
2010,07,18,00,18,15.00
2010,07,18,00,19,15.00
2010,07,18,00,20,14.90
2010,07,18,00,21,14.90
2010,07,18,00,22,14.90
2010,07,18,00,23,14.80
2010,07,18,00,24,14.80
2010,07,18,00,25,14.80
2010,07,18,00,26,14.80
2010,07,18,00,27,14.80
2010,07,18,00,28,14.80
2010,07,18,00,29,14.70
2010,07,18,00,30,14.70
2010,07,18,00,31,14.70
2010,07,18,00,32,14.70
2010,07,18,00,33,14.60
2010,07,18,00,34,14.60
2010,07,18,00,35,14.60
2010,07,18,00,36,14.60
2010,07,18,00,37,14.60
2010,07,18,00,38,14.60
2010,07,18,00,39,14.60
2010,07,18,00,40,14.50
2010,07,18,00,41,14.50
2010,07,18,00,42,14.50
2010,07,18,00,43,14.50
2010,07,18,00,44,14.50
2010,07,18,00,45,14.40
2010,07,18,00,46,14.40
2010,07,18,00,47,14.40
2010,07,18,00,48,14.40
2010,07,18,00,49,14.40
2010,07,18,00,50,14.30
2010,07,18,00,51,14.30
2010,07,18,00,52,14.20
2010,07,18,00,53,14.20
2010,07,18,00,54,14.20
2010,07,18,00,55,14.20
2010,07,18,00,56,14.20
2010,07,18,00,57,14.20
2010,07,18,00,58,14.10
2010,07,18,00,59,14.10
2010,07,18,01,00,14.10
2010,07,18,01,01,14.10
2010,07,18,01,02,14.00
2010,07,18,01,03,14.00
2010,07,18,01,04,14.00
2010,07,18,01,05,14.00
2010,07,18,01,06,13.90
2010,07,18,01,07,13.90
2010,07,18,01,08,13.90
2010,07,18,01,09,13.90
2010,07,18,01,10,13.90
2010,07,18,01,11,13.90
2010,07,18,01,12,13.90
2010,07,18,01,13,13.80
2010,07,18,01,14,13.80
2010,07,18,01,15,13.80
2010,07,18,01,16,13.80
2010,07,18,01,17,13.80
2010,07,18,01,18,13.80
2010,07,18,01,19,13.80
2010,07,18,01,20,13.80
2010,07,18,01,21,13.70
2010,07,18,01,22,13.70
2010,07,18,01,23,13.70
2010,07,18,01,24,13.70
2010,07,18,01,25,13.70
2010,07,18,01,26,13.70
2010,07,18,01,27,13.70
2010,07,18,01,28,13.70
2010,07,18,01,29,13.60
2010,07,18,01,30,13.60
2010,07,18,01,31,13.60
2010,07,18,01,32,13.60
2010,07,18,01,33,13.60
2010,07,18,01,34,13.60
2010,07,18,01,35,13.60
2010,07,18,01,36,13.60
2010,07,18,01,37,13.50
2010,07,18,01,38,13.50
2010,07,18,01,39,13.50
2010,07,18,01,40,13.50
2010,07,18,01,41,13.40
2010,07,18,01,42,13.40
2010,07,18,01,43,13.40
2010,07,18,01,44,13.50
2010,07,18,01,45,13.50
2010,07,18,01,46,13.50
2010,07,18,01,47,13.50
2010,07,18,01,48,13.50
2010,07,18,01,49,13.50
2010,07,18,01,50,13.50
2010,07,18,01,51,13.50
2010,07,18,01,52,13.50
2010,07,18,01,53,13.50
2010,07,18,01,54,13.50
2010,07,18,01,55,13.50
2010,07,18,01,56,13.50
2010,07,18,01,57,13.50
2010,07,18,01,58,13.50
2010,07,18,01,59,13.50
2010,07,18,02,00,13.50
2010,07,18,02,01,13.40
2010,07,18,02,02,13.40
2010,07,18,02,03,13.40
2010,07,18,02,04,13.40
2010,07,18,02,05,13.30
2010,07,18,02,06,13.30
2010,07,18,02,07,13.30
2010,07,18,02,08,13.30
2010,07,18,02,09,13.30
2010,07,18,02,10,13.30
2010,07,18,02,11,13.30
2010,07,18,02,12,13.30
2010,07,18,02,13,13.30
2010,07,18,02,14,13.20
2010,07,18,02,15,13.20
2010,07,18,02,16,13.20
2010,07,18,02,17,13.20
2010,07,18,02,18,13.20
2010,07,18,02,19,13.20
2010,07,18,02,20,13.10
2010,07,18,02,21,13.10
2010,07,18,02,22,13.10
2010,07,18,02,23,13.10
2010,07,18,02,24,13.10
2010,07,18,02,25,13.10
2010,07,18,02,26,13.00
2010,07,18,02,27,13.00
2010,07,18,02,28,13.00
2010,07,18,02,29,13.00
2010,07,18,02,30,12.90
2010,07,18,02,31,12.90
2010,07,18,02,32,12.90
2010,07,18,02,33,12.90
2010,07,18,02,34,12.80
2010,07,18,02,35,12.80
2010,07,18,02,36,12.80
2010,07,18,02,37,12.80
2010,07,18,02,38,12.80
2010,07,18,02,39,12.80
2010,07,18,02,40,12.80
2010,07,18,02,41,12.80
2010,07,18,02,42,12.80
2010,07,18,02,43,12.80
2010,07,18,02,44,12.80
2010,07,18,02,45,12.80
2010,07,18,02,46,12.80
2010,07,18,02,47,12.80
2010,07,18,02,48,12.80
2010,07,18,02,49,12.80
2010,07,18,02,50,12.80
2010,07,18,02,51,12.80
2010,07,18,02,52,12.80
2010,07,18,02,53,12.80
2010,07,18,02,54,12.80
2010,07,18,02,55,12.80
2010,07,18,02,56,12.80
2010,07,18,02,57,12.70
2010,07,18,02,58,12.70
2010,07,18,02,59,12.70
2010,07,18,03,00,12.70
2010,07,18,03,01,12.70
2010,07,18,03,02,12.70
2010,07,18,03,03,12.70
2010,07,18,03,04,12.70
2010,07,18,03,05,12.70
2010,07,18,03,06,12.70
2010,07,18,03,07,12.70
2010,07,18,03,08,12.70
2010,07,18,03,09,12.70
2010,07,18,03,10,12.60
2010,07,18,03,11,12.60
2010,07,18,03,12,12.60
2010,07,18,03,13,12.60
2010,07,18,03,14,12.60
2010,07,18,03,15,12.50
2010,07,18,03,16,12.50
2010,07,18,03,17,12.50
2010,07,18,03,18,12.50
2010,07,18,03,19,12.40
2010,07,18,03,20,12.40
2010,07,18,03,21,12.40
2010,07,18,03,22,12.40
2010,07,18,03,23,12.40
2010,07,18,03,24,12.40
2010,07,18,03,25,12.40
2010,07,18,03,26,12.40
2010,07,18,03,27,12.30
2010,07,18,03,28,12.40
2010,07,18,03,29,12.40
2010,07,18,03,30,12.30
2010,07,18,03,31,12.30
2010,07,18,03,32,12.30
2010,07,18,03,33,12.30
2010,07,18,03,34,12.30
2010,07,18,03,35,12.30
2010,07,18,03,36,12.30
2010,07,18,03,37,12.30
2010,07,18,03,38,12.20
2010,07,18,03,39,12.20
2010,07,18,03,40,12.20
2010,07,18,03,41,12.20
2010,07,18,03,42,12.20
2010,07,18,03,43,12.20
2010,07,18,03,44,12.20
2010,07,18,03,45,12.20
2010,07,18,03,46,12.10
2010,07,18,03,47,12.10
2010,07,18,03,48,12.10
2010,07,18,03,49,12.10
2010,07,18,03,50,12.10
2010,07,18,03,51,12.10
2010,07,18,03,52,12.10
2010,07,18,03,53,12.10
2010,07,18,03,54,12.00
2010,07,18,03,55,12.00
2010,07,18,03,56,12.00
2010,07,18,03,57,12.00
2010,07,18,03,58,12.00
2010,07,18,03,59,12.10
2010,07,18,04,00,12.10
2010,07,18,04,01,12.10
2010,07,18,04,02,12.10
2010,07,18,04,03,12.10
2010,07,18,04,04,12.00
2010,07,18,04,05,12.00
2010,07,18,04,06,12.00
2010,07,18,04,07,12.00
2010,07,18,04,08,11.90
2010,07,18,04,09,11.90
2010,07,18,04,10,11.90
2010,07,18,04,11,11.90
2010,07,18,04,12,11.80
2010,07,18,04,13,11.80
2010,07,18,04,14,11.80
2010,07,18,04,15,11.80
2010,07,18,04,16,11.80
2010,07,18,04,17,11.80
2010,07,18,04,18,11.80
2010,07,18,04,19,11.80
2010,07,18,04,20,11.80
2010,07,18,04,21,11.80
2010,07,18,04,22,11.80
2010,07,18,04,23,11.80
2010,07,18,04,24,11.80
2010,07,18,04,25,11.80
2010,07,18,04,26,11.80
2010,07,18,04,27,11.90
2010,07,18,04,28,11.90
2010,07,18,04,29,11.90
2010,07,18,04,30,11.90
2010,07,18,04,31,11.90
2010,07,18,04,32,11.90
2010,07,18,04,33,11.90
2010,07,18,04,34,11.90
2010,07,18,04,35,11.80
2010,07,18,04,36,11.80
2010,07,18,04,37,11.80
2010,07,18,04,38,11.80
2010,07,18,04,39,11.80
2010,07,18,04,40,11.80
2010,07,18,04,41,11.80
2010,07,18,04,42,11.70
2010,07,18,04,43,11.70
2010,07,18,04,44,11.70
2010,07,18,04,45,11.60
2010,07,18,04,46,11.60
2010,07,18,04,47,11.60
2010,07,18,04,48,11.60
2010,07,18,04,49,11.60
2010,07,18,04,50,11.60
2010,07,18,04,51,11.60
2010,07,18,04,52,11.60
2010,07,18,04,53,11.60
2010,07,18,04,54,11.60
2010,07,18,04,55,11.60
2010,07,18,04,56,11.60
2010,07,18,04,57,11.60
2010,07,18,04,58,11.60
2010,07,18,04,59,11.60
2010,07,18,05,00,11.60
2010,07,18,05,01,11.60
2010,07,18,05,02,11.60
2010,07,18,05,03,11.60
2010,07,18,05,04,11.50
2010,07,18,05,05,11.40
2010,07,18,05,06,11.40
2010,07,18,05,07,11.40
2010,07,18,05,08,11.40
2010,07,18,05,09,11.40
2010,07,18,05,10,11.40
2010,07,18,05,11,11.40
2010,07,18,05,12,11.40
2010,07,18,05,13,11.40
2010,07,18,05,14,11.40
2010,07,18,05,15,11.40
2010,07,18,05,16,11.40
2010,07,18,05,17,11.30
2010,07,18,05,18,11.30
2010,07,18,05,19,11.30
2010,07,18,05,20,11.30
2010,07,18,05,21,11.30
2010,07,18,05,22,11.30
2010,07,18,05,23,11.30
2010,07,18,05,24,11.30
2010,07,18,05,25,11.30
2010,07,18,05,26,11.20
2010,07,18,05,27,11.20
2010,07,18,05,28,11.20
2010,07,18,05,29,11.20
2010,07,18,05,30,11.20
2010,07,18,05,31,11.20
2010,07,18,05,32,11.20
2010,07,18,05,33,11.20
2010,07,18,05,34,11.20
2010,07,18,05,35,11.20
2010,07,18,05,36,11.20
2010,07,18,05,37,11.20
2010,07,18,05,38,11.20
2010,07,18,05,39,11.20
2010,07,18,05,40,11.20
2010,07,18,05,41,11.20
2010,07,18,05,42,11.20
2010,07,18,05,43,11.20
2010,07,18,05,44,11.20
2010,07,18,05,45,11.20
2010,07,18,05,46,11.20
2010,07,18,05,47,11.20
2010,07,18,05,48,11.20
2010,07,18,05,49,11.20
2010,07,18,05,50,11.20
2010,07,18,05,51,11.20
2010,07,18,05,52,11.20
2010,07,18,05,53,11.20
2010,07,18,05,54,11.20
2010,07,18,05,55,11.20
2010,07,18,05,56,11.20
2010,07,18,05,57,11.20
2010,07,18,05,58,11.20
2010,07,18,05,59,11.20
2010,07,18,06,00,11.20
2010,07,18,06,01,11.20
2010,07,18,06,02,11.20
2010,07,18,06,03,11.30
2010,07,18,06,04,11.30
2010,07,18,06,05,11.30
2010,07,18,06,06,11.30
2010,07,18,06,07,11.30
2010,07,18,06,08,11.40
2010,07,18,06,09,11.40
2010,07,18,06,10,11.40
2010,07,18,06,11,11.40
2010,07,18,06,12,11.40
2010,07,18,06,13,11.60
2010,07,18,06,14,11.60
2010,07,18,06,15,11.60
2010,07,18,06,16,11.60
2010,07,18,06,17,11.70
2010,07,18,06,18,11.70
2010,07,18,06,19,11.80
2010,07,18,06,20,11.80
2010,07,18,06,21,11.80
2010,07,18,06,22,11.80
2010,07,18,06,23,11.80
2010,07,18,06,24,11.80
2010,07,18,06,25,11.90
2010,07,18,06,26,11.90
2010,07,18,06,27,12.00
2010,07,18,06,28,12.10
2010,07,18,06,29,12.10
2010,07,18,06,30,12.20
2010,07,18,06,31,12.20
2010,07,18,06,32,12.30
2010,07,18,06,33,12.30
2010,07,18,06,34,12.40
2010,07,18,06,35,12.50
2010,07,18,06,36,12.60
2010,07,18,06,37,12.60
2010,07,18,06,38,12.70
2010,07,18,06,39,12.80
2010,07,18,06,40,12.80
2010,07,18,06,41,12.80
2010,07,18,06,42,12.90
2010,07,18,06,43,12.90
2010,07,18,06,44,13.00
2010,07,18,06,45,13.10
2010,07,18,06,46,13.10
2010,07,18,06,47,13.20
2010,07,18,06,48,13.30
2010,07,18,06,49,13.30
2010,07,18,06,50,13.40
2010,07,18,06,51,13.50
2010,07,18,06,52,13.50
2010,07,18,06,53,13.60
2010,07,18,06,54,13.70
2010,07,18,06,55,13.70
2010,07,18,06,56,13.80
2010,07,18,06,57,13.90
2010,07,18,06,58,14.00
2010,07,18,06,59,14.10
2010,07,18,07,00,14.10
2010,07,18,07,01,14.20
2010,07,18,07,02,14.20
2010,07,18,07,03,14.20
2010,07,18,07,04,14.30
2010,07,18,07,05,14.40
2010,07,18,07,06,14.50
2010,07,18,07,07,14.50
2010,07,18,07,08,14.60
2010,07,18,07,09,14.70
2010,07,18,07,10,14.70
2010,07,18,07,11,14.80
2010,07,18,07,12,14.80
2010,07,18,07,13,14.80
2010,07,18,07,14,14.90
2010,07,18,07,15,14.90
2010,07,18,07,16,15.00
2010,07,18,07,17,15.10
2010,07,18,07,18,15.10
2010,07,18,07,19,15.20
2010,07,18,07,20,15.30
2010,07,18,07,21,15.30
2010,07,18,07,22,15.40
2010,07,18,07,23,15.50
2010,07,18,07,24,15.50
2010,07,18,07,25,15.50
2010,07,18,07,26,15.40
2010,07,18,07,27,15.40
2010,07,18,07,28,15.40
2010,07,18,07,29,15.40
2010,07,18,07,30,15.30
2010,07,18,07,31,15.40
2010,07,18,07,32,15.40
2010,07,18,07,33,15.40
2010,07,18,07,34,15.40
2010,07,18,07,35,15.40
2010,07,18,07,36,15.50
2010,07,18,07,37,15.60
2010,07,18,07,38,15.70
2010,07,18,07,39,15.80
2010,07,18,07,40,15.90
2010,07,18,07,41,16.00
2010,07,18,07,42,16.10
2010,07,18,07,43,16.10
2010,07,18,07,44,16.10
2010,07,18,07,45,16.10
2010,07,18,07,46,16.10
2010,07,18,07,47,16.10
2010,07,18,07,48,16.10
2010,07,18,07,49,16.20
2010,07,18,07,50,16.10
2010,07,18,07,51,16.10
2010,07,18,07,52,16.10
2010,07,18,07,53,16.10
2010,07,18,07,54,16.10
2010,07,18,07,55,16.10
2010,07,18,07,56,16.10
2010,07,18,07,57,16.10
2010,07,18,07,58,16.20
2010,07,18,07,59,16.20
2010,07,18,08,00,16.10
2010,07,18,08,01,16.10
2010,07,18,08,02,16.10
2010,07,18,08,03,16.10
2010,07,18,08,04,16.10
2010,07,18,08,05,16.20
2010,07,18,08,06,16.30
2010,07,18,08,07,16.40
2010,07,18,08,08,16.50
2010,07,18,08,09,16.60
2010,07,18,08,10,16.70
2010,07,18,08,11,16.80
2010,07,18,08,12,16.90
2010,07,18,08,13,17.00
2010,07,18,08,14,17.10
2010,07,18,08,15,17.20
2010,07,18,08,16,17.30
2010,07,18,08,17,17.30
2010,07,18,08,18,17.30
2010,07,18,08,19,17.30
2010,07,18,08,20,17.30
2010,07,18,08,21,17.40
2010,07,18,08,22,17.40
2010,07,18,08,23,17.40
2010,07,18,08,24,17.40
2010,07,18,08,25,17.40
2010,07,18,08,26,17.50
2010,07,18,08,27,17.50
2010,07,18,08,28,17.60
2010,07,18,08,29,17.50
2010,07,18,08,30,17.50
2010,07,18,08,31,17.60
2010,07,18,08,32,17.60
2010,07,18,08,33,17.60
2010,07,18,08,34,17.70
2010,07,18,08,35,17.70
2010,07,18,08,36,17.80
2010,07,18,08,37,17.70
2010,07,18,08,38,17.70
2010,07,18,08,39,17.70
2010,07,18,08,40,17.70
2010,07,18,08,41,17.70
2010,07,18,08,42,17.70
2010,07,18,08,43,17.70
2010,07,18,08,44,17.80
2010,07,18,08,45,17.80
2010,07,18,08,46,17.90
2010,07,18,08,47,17.90
2010,07,18,08,48,17.90
2010,07,18,08,49,17.90
2010,07,18,08,50,18.00
2010,07,18,08,51,18.10
2010,07,18,08,52,18.20
2010,07,18,08,53,18.20
2010,07,18,08,54,18.20
2010,07,18,08,55,18.20
2010,07,18,08,56,18.20
2010,07,18,08,57,18.20
2010,07,18,08,58,18.30
2010,07,18,08,59,18.30
2010,07,18,09,00,18.40
2010,07,18,09,01,18.40
2010,07,18,09,02,18.40
2010,07,18,09,03,18.40
2010,07,18,09,04,18.20
2010,07,18,09,05,18.20
2010,07,18,09,06,18.30
2010,07,18,09,07,18.20
2010,07,18,09,08,18.20
2010,07,18,09,09,18.30
2010,07,18,09,10,18.30
2010,07,18,09,11,18.30
2010,07,18,09,12,18.30
2010,07,18,09,13,18.20
2010,07,18,09,14,18.20
2010,07,18,09,15,18.20
2010,07,18,09,16,18.10
2010,07,18,09,17,18.10
2010,07,18,09,18,18.00
2010,07,18,09,19,17.90
2010,07,18,09,20,17.90
2010,07,18,09,21,17.90
2010,07,18,09,22,17.90
2010,07,18,09,23,18.00
2010,07,18,09,24,18.10
2010,07,18,09,25,18.20
2010,07,18,09,26,18.20
2010,07,18,09,27,18.30
2010,07,18,09,28,18.40
2010,07,18,09,29,18.40
2010,07,18,09,30,18.20
2010,07,18,09,31,18.10
2010,07,18,09,32,17.90
2010,07,18,09,33,17.90
2010,07,18,09,34,17.90
2010,07,18,09,35,17.80
2010,07,18,09,36,17.80
2010,07,18,09,37,17.80
2010,07,18,09,38,17.80
2010,07,18,09,39,17.70
2010,07,18,09,40,17.60
2010,07,18,09,41,17.50
2010,07,18,09,42,17.50
2010,07,18,09,43,17.50
2010,07,18,09,44,17.50
2010,07,18,09,45,17.60
2010,07,18,09,46,17.70
2010,07,18,09,47,17.80
2010,07,18,09,48,17.70
2010,07,18,09,49,17.60
2010,07,18,09,50,17.40
2010,07,18,09,51,17.30
2010,07,18,09,52,17.30
2010,07,18,09,53,17.30
2010,07,18,09,54,17.30
2010,07,18,09,55,17.30
2010,07,18,09,56,17.20
2010,07,18,09,57,17.20
2010,07,18,09,58,17.20
2010,07,18,09,59,17.20
2010,07,18,10,00,17.20
2010,07,18,10,01,17.30
2010,07,18,10,02,17.30
2010,07,18,10,03,17.30
2010,07,18,10,04,17.30
2010,07,18,10,05,17.50
2010,07,18,10,06,17.50
2010,07,18,10,07,17.50
2010,07,18,10,08,17.50
2010,07,18,10,09,17.60
2010,07,18,10,10,17.60
2010,07,18,10,11,17.50
2010,07,18,10,12,17.40
2010,07,18,10,13,17.30
2010,07,18,10,14,17.30
2010,07,18,10,15,17.10
2010,07,18,10,16,17.00
2010,07,18,10,17,17.00
2010,07,18,10,18,17.10
2010,07,18,10,19,17.20
2010,07,18,10,20,17.30
2010,07,18,10,21,17.30
2010,07,18,10,22,17.30
2010,07,18,10,23,17.30
2010,07,18,10,24,17.30
2010,07,18,10,25,17.30
2010,07,18,10,26,17.40
2010,07,18,10,27,17.40
2010,07,18,10,28,17.40
2010,07,18,10,29,17.50
2010,07,18,10,30,17.70
2010,07,18,10,31,17.80
2010,07,18,10,32,17.80
2010,07,18,10,33,17.70
2010,07,18,10,34,17.50
2010,07,18,10,35,17.40
2010,07,18,10,36,17.40
2010,07,18,10,37,17.50
2010,07,18,10,38,17.60
2010,07,18,10,39,17.70
2010,07,18,10,40,17.80
2010,07,18,10,41,17.80
2010,07,18,10,42,17.80
2010,07,18,10,43,17.80
2010,07,18,10,44,17.80
2010,07,18,10,45,17.60
2010,07,18,10,46,17.50
2010,07,18,10,47,17.50
2010,07,18,10,48,17.50
2010,07,18,10,49,17.60
2010,07,18,10,50,17.60
2010,07,18,10,51,17.60
2010,07,18,10,52,17.60
2010,07,18,10,53,17.60
2010,07,18,10,54,17.70
2010,07,18,10,55,17.80
2010,07,18,10,56,17.90
2010,07,18,10,57,17.90
2010,07,18,10,58,17.90
2010,07,18,10,59,17.90
2010,07,18,11,00,17.90
2010,07,18,11,01,18.00
2010,07,18,11,02,18.10
2010,07,18,11,03,18.10
2010,07,18,11,04,18.20
2010,07,18,11,05,18.20
2010,07,18,11,06,18.20
2010,07,18,11,07,18.10
2010,07,18,11,08,18.10
2010,07,18,11,09,18.20
2010,07,18,11,10,18.20
2010,07,18,11,11,18.30
2010,07,18,11,12,18.30
2010,07,18,11,13,18.20
2010,07,18,11,14,18.30
2010,07,18,11,15,18.30
2010,07,18,11,16,18.30
2010,07,18,11,17,18.40
2010,07,18,11,18,18.50
2010,07,18,11,19,18.50
2010,07,18,11,20,18.60
2010,07,18,11,21,18.60
2010,07,18,11,22,18.50
2010,07,18,11,23,18.40
2010,07,18,11,24,18.30
2010,07,18,11,25,18.20
2010,07,18,11,26,18.10
2010,07,18,11,27,17.90
2010,07,18,11,28,17.90
2010,07,18,11,29,17.90
2010,07,18,11,30,17.90
2010,07,18,11,31,17.90
2010,07,18,11,32,17.70
2010,07,18,11,33,17.60
2010,07,18,11,34,17.50
2010,07,18,11,35,17.50
2010,07,18,11,36,17.60
2010,07,18,11,37,17.60
2010,07,18,11,38,17.50
2010,07,18,11,39,17.30
2010,07,18,11,40,17.10
2010,07,18,11,41,17.10
2010,07,18,11,42,17.00
2010,07,18,11,43,16.90
2010,07,18,11,44,16.80
2010,07,18,11,45,16.90
2010,07,18,11,46,17.00
2010,07,18,11,47,17.20
2010,07,18,11,48,17.30
2010,07,18,11,49,17.40
2010,07,18,11,50,17.30
2010,07,18,11,51,17.20
2010,07,18,11,52,17.10
2010,07,18,11,53,17.00
2010,07,18,11,54,17.00
2010,07,18,11,55,16.90
2010,07,18,11,56,16.90
2010,07,18,11,57,16.80
2010,07,18,11,58,16.70
2010,07,18,11,59,16.70
2010,07,18,12,00,16.70
2010,07,18,12,01,16.50
2010,07,18,12,02,16.40
2010,07,18,12,03,16.40
2010,07,18,12,04,16.40
2010,07,18,12,05,16.30
2010,07,18,12,06,16.30
2010,07,18,12,07,16.10
2010,07,18,12,08,15.90
2010,07,18,12,09,15.60
2010,07,18,12,10,15.50
2010,07,18,12,11,15.40
2010,07,18,12,12,15.40
2010,07,18,12,13,15.50
2010,07,18,12,14,15.50
2010,07,18,12,15,15.60
2010,07,18,12,16,15.40
2010,07,18,12,17,15.30
2010,07,18,12,18,15.30
2010,07,18,12,19,15.20
2010,07,18,12,20,15.20
2010,07,18,12,21,15.20
2010,07,18,12,22,15.10
2010,07,18,12,23,15.10
2010,07,18,12,24,14.90
2010,07,18,12,25,14.80
2010,07,18,12,26,14.80
2010,07,18,12,27,14.70
2010,07,18,12,28,14.80
2010,07,18,12,29,14.70
2010,07,18,12,30,14.70
2010,07,18,12,31,14.70
2010,07,18,12,32,14.70
2010,07,18,12,33,14.60
2010,07,18,12,34,14.50
2010,07,18,12,35,14.50
2010,07,18,12,36,14.30
2010,07,18,12,37,14.20
2010,07,18,12,38,14.30
2010,07,18,12,39,14.30
2010,07,18,12,40,14.30
2010,07,18,12,41,14.30
2010,07,18,12,42,14.20
2010,07,18,12,43,14.30
2010,07,18,12,44,14.40
2010,07,18,12,45,14.50
2010,07,18,12,46,14.50
2010,07,18,12,47,14.60
2010,07,18,12,48,14.60
2010,07,18,12,49,14.70
2010,07,18,12,50,14.70
2010,07,18,12,51,14.70
2010,07,18,12,52,14.80
2010,07,18,12,53,14.70
2010,07,18,12,54,14.70
2010,07,18,12,55,14.60
2010,07,18,12,56,14.40
2010,07,18,12,57,14.40
2010,07,18,12,58,14.40
2010,07,18,12,59,14.40
2010,07,18,13,00,14.40
2010,07,18,13,01,14.30
2010,07,18,13,02,14.30
2010,07,18,13,03,14.20
2010,07,18,13,04,14.20
2010,07,18,13,05,14.20
2010,07,18,13,06,14.20
2010,07,18,13,07,14.20
2010,07,18,13,08,14.20
2010,07,18,13,09,14.20
2010,07,18,13,10,14.20
2010,07,18,13,11,14.30
2010,07,18,13,12,14.40
2010,07,18,13,13,14.50
2010,07,18,13,14,14.50
2010,07,18,13,15,14.40
2010,07,18,13,16,14.40
2010,07,18,13,17,14.50
2010,07,18,13,18,14.60
2010,07,18,13,19,14.60
2010,07,18,13,20,14.40
2010,07,18,13,21,14.20
2010,07,18,13,22,14.20
2010,07,18,13,23,14.10
2010,07,18,13,24,14.20
2010,07,18,13,25,14.20
2010,07,18,13,26,14.30
2010,07,18,13,27,14.30
2010,07,18,13,28,14.40
2010,07,18,13,29,14.40
2010,07,18,13,30,14.40
2010,07,18,13,31,14.50
2010,07,18,13,32,14.60
2010,07,18,13,33,14.50
2010,07,18,13,34,14.50
2010,07,18,13,35,14.50
2010,07,18,13,36,14.60
2010,07,18,13,37,14.50
2010,07,18,13,38,14.50
2010,07,18,13,39,14.50
2010,07,18,13,40,14.30
2010,07,18,13,41,14.20
2010,07,18,13,42,14.10
2010,07,18,13,43,14.10
2010,07,18,13,44,14.10
2010,07,18,13,45,13.90
2010,07,18,13,46,13.90
2010,07,18,13,47,13.90
2010,07,18,13,48,13.80
2010,07,18,13,49,13.70
2010,07,18,13,50,13.60
2010,07,18,13,51,13.50
2010,07,18,13,52,13.50
2010,07,18,13,53,13.60
2010,07,18,13,54,13.70
2010,07,18,13,55,13.70
2010,07,18,13,56,13.70
2010,07,18,13,57,13.90
2010,07,18,13,58,14.00
2010,07,18,13,59,14.20
2010,07,18,14,00,14.20
2010,07,18,14,01,14.20
2010,07,18,14,02,14.40
2010,07,18,14,03,14.50
2010,07,18,14,04,14.50
2010,07,18,14,05,14.50
2010,07,18,14,06,14.50
2010,07,18,14,07,14.60
2010,07,18,14,08,14.70
2010,07,18,14,09,14.80
2010,07,18,14,10,14.90
2010,07,18,14,11,14.90
2010,07,18,14,12,14.90
2010,07,18,14,13,14.80
2010,07,18,14,14,14.70
2010,07,18,14,15,14.60
2010,07,18,14,16,14.50
2010,07,18,14,17,14.30
2010,07,18,14,18,14.30
2010,07,18,14,19,14.40
2010,07,18,14,20,14.50
2010,07,18,14,21,14.60
2010,07,18,14,22,14.60
2010,07,18,14,23,14.50
2010,07,18,14,24,14.50
2010,07,18,14,25,14.40
2010,07,18,14,26,14.40
2010,07,18,14,27,14.50
2010,07,18,14,28,14.70
2010,07,18,14,29,14.70
2010,07,18,14,30,14.50
2010,07,18,14,31,14.40
2010,07,18,14,32,14.40
2010,07,18,14,33,14.40
2010,07,18,14,34,14.30
2010,07,18,14,35,14.40
2010,07,18,14,36,14.30
2010,07,18,14,37,14.30
2010,07,18,14,38,14.30
2010,07,18,14,39,14.30
2010,07,18,14,40,14.30
2010,07,18,14,41,14.50
2010,07,18,14,42,14.60
2010,07,18,14,43,14.70
2010,07,18,14,44,14.80
2010,07,18,14,45,14.80
2010,07,18,14,46,14.90
2010,07,18,14,47,14.90
2010,07,18,14,48,14.90
2010,07,18,14,49,14.90
2010,07,18,14,50,15.00
2010,07,18,14,51,15.00
2010,07,18,14,52,15.20
2010,07,18,14,53,15.20
2010,07,18,14,54,15.30
2010,07,18,14,55,15.30
2010,07,18,14,56,15.40
2010,07,18,14,57,15.40
2010,07,18,14,58,15.50
2010,07,18,14,59,15.60
2010,07,18,15,00,15.70
2010,07,18,15,01,15.80
2010,07,18,15,02,15.80
2010,07,18,15,03,15.80
2010,07,18,15,04,15.70
2010,07,18,15,05,15.80
2010,07,18,15,06,15.70
2010,07,18,15,07,15.70
2010,07,18,15,08,15.60
2010,07,18,15,09,15.40
2010,07,18,15,10,15.20
2010,07,18,15,11,15.00
2010,07,18,15,12,14.80
2010,07,18,15,13,14.80
2010,07,18,15,14,14.80
2010,07,18,15,15,15.00
2010,07,18,15,16,15.20
2010,07,18,15,17,15.20
2010,07,18,15,18,15.10
2010,07,18,15,19,15.10
2010,07,18,15,20,15.20
2010,07,18,15,21,15.30
2010,07,18,15,22,15.30
2010,07,18,15,23,15.30
2010,07,18,15,24,15.30
2010,07,18,15,25,15.30
2010,07,18,15,26,15.30
2010,07,18,15,27,15.40
2010,07,18,15,28,15.50
2010,07,18,15,29,15.60
2010,07,18,15,30,15.70
2010,07,18,15,31,15.70
2010,07,18,15,32,15.70
2010,07,18,15,33,15.60
2010,07,18,15,34,15.60
2010,07,18,15,35,15.60
2010,07,18,15,36,15.60
2010,07,18,15,37,15.50
2010,07,18,15,38,15.40
2010,07,18,15,39,15.40
2010,07,18,15,40,15.50
2010,07,18,15,41,15.50
2010,07,18,15,42,15.40
2010,07,18,15,43,15.40
2010,07,18,15,44,15.40
2010,07,18,15,45,15.40
2010,07,18,15,46,15.30
2010,07,18,15,47,15.30
2010,07,18,15,48,15.20
2010,07,18,15,49,15.20
2010,07,18,15,50,15.30
2010,07,18,15,51,15.30
2010,07,18,15,52,15.30
2010,07,18,15,53,15.10
2010,07,18,15,54,14.90
2010,07,18,15,55,14.70
2010,07,18,15,56,14.50
2010,07,18,15,57,14.50
2010,07,18,15,58,14.50
2010,07,18,15,59,14.60
2010,07,18,16,00,14.70
2010,07,18,16,01,14.70
2010,07,18,16,02,14.80
2010,07,18,16,03,14.80
2010,07,18,16,04,14.70
2010,07,18,16,05,14.70
2010,07,18,16,06,14.70
2010,07,18,16,07,14.70
2010,07,18,16,08,14.80
2010,07,18,16,09,14.70
2010,07,18,16,10,14.50
2010,07,18,16,11,14.30
2010,07,18,16,12,14.10
2010,07,18,16,13,13.90
2010,07,18,16,14,13.90
2010,07,18,16,15,13.80
2010,07,18,16,16,13.80
2010,07,18,16,17,13.70
2010,07,18,16,18,13.60
2010,07,18,16,19,13.60
2010,07,18,16,20,13.50
2010,07,18,16,21,13.30
2010,07,18,16,22,13.10
2010,07,18,16,23,13.00
2010,07,18,16,24,12.90
2010,07,18,16,25,12.90
2010,07,18,16,26,12.90
2010,07,18,16,27,13.00
2010,07,18,16,28,13.10
2010,07,18,16,29,13.20
2010,07,18,16,30,13.20
2010,07,18,16,31,13.30
2010,07,18,16,32,13.30
2010,07,18,16,33,13.40
2010,07,18,16,34,13.40
2010,07,18,16,35,13.40
2010,07,18,16,36,13.50
2010,07,18,16,37,13.50
2010,07,18,16,38,13.60
2010,07,18,16,39,13.60
2010,07,18,16,40,13.60
2010,07,18,16,41,13.60
2010,07,18,16,42,13.60
2010,07,18,16,43,13.40
2010,07,18,16,44,13.30
2010,07,18,16,45,13.30
2010,07,18,16,46,13.40
2010,07,18,16,47,13.40
2010,07,18,16,48,13.40
2010,07,18,16,49,13.50
2010,07,18,16,50,13.50
2010,07,18,16,51,13.50
2010,07,18,16,52,13.60
2010,07,18,16,53,13.60
2010,07,18,16,54,13.70
2010,07,18,16,55,13.70
2010,07,18,16,56,13.70
2010,07,18,16,57,13.80
2010,07,18,16,58,13.80
2010,07,18,16,59,13.70
2010,07,18,17,00,13.60
2010,07,18,17,01,13.60
2010,07,18,17,02,13.60
2010,07,18,17,03,13.70
2010,07,18,17,04,13.70
2010,07,18,17,05,13.70
2010,07,18,17,06,13.70
2010,07,18,17,07,13.80
2010,07,18,17,08,13.90
2010,07,18,17,09,14.00
2010,07,18,17,10,14.10
2010,07,18,17,11,14.00
2010,07,18,17,12,13.80
2010,07,18,17,13,13.80
2010,07,18,17,14,13.70
2010,07,18,17,15,13.70
2010,07,18,17,16,13.70
2010,07,18,17,17,13.70
2010,07,18,17,18,13.70
2010,07,18,17,19,13.70